LOT321 EPLB-EPWA

Flight info

Callsign LOT321
Flight time 0h 39m
Altitude 18000
Route VADOL L621 LIMVI
Aircraft B738/M-SDE2E3FGHIRWXY/LB1

Departure

Time 2026-04-24 21:10
Airport Lublin Airport (EPLB)

Arrival

Time 2026-04-24 21:50
Airport Warsaw Chopin Airport (EPWA)
Time Latitude Longitude Altitude Speed Heading
2026-04-24 20:45 51.23659 22.71541 652 ft 0 kts 167°
2026-04-24 20:56 51.23666 22.71538 652 ft 2 kts 167°
2026-04-24 20:56 51.23682 22.71533 655 ft 2 kts 171°
2026-04-24 20:56 51.23699 22.71529 655 ft 2 kts 175°
2026-04-24 20:57 51.23715 22.71529 655 ft 2 kts 188°
2026-04-24 20:57 51.23731 22.71538 652 ft 2 kts 233°
2026-04-24 20:57 51.23736 22.71554 654 ft 1 kts 256°
2026-04-24 20:57 51.23736 22.71556 654 ft 0 kts 257°
2026-04-24 20:58 51.23736 22.71555 654 ft 0 kts 257°
2026-04-24 21:00 51.23735 22.71551 652 ft 2 kts 256°
2026-04-24 21:01 51.23728 22.71499 652 ft 8 kts 266°
2026-04-24 21:01 51.23780 22.71434 652 ft 14 kts 348°
2026-04-24 21:01 51.23822 22.71421 652 ft 1 kts 348°
2026-04-24 21:01 51.23860 22.71408 652 ft 10 kts 348°
2026-04-24 21:02 51.23896 22.71396 650 ft 0 kts 347°
2026-04-24 21:03 51.23897 22.71396 650 ft 1 kts 347°
2026-04-24 21:04 51.23925 22.71385 649 ft 9 kts 347°
2026-04-24 21:04 51.24014 22.71379 645 ft 18 kts 35°
2026-04-24 21:04 51.24051 22.71583 642 ft 24 kts 78°
2026-04-24 21:04 51.24092 22.71889 639 ft 32 kts 78°
2026-04-24 21:05 51.24158 22.71923 640 ft 14 kts 277°
2026-04-24 21:05 51.24112 22.71862 640 ft 21 kts 209°
2026-04-24 21:05 51.24070 22.71731 639 ft 4 kts 256°
2026-04-24 21:05 51.24070 22.71728 639 ft 1 kts 266°
2026-04-24 21:06 51.24077 22.71671 640 ft 7 kts 266°
2026-04-24 21:06 51.24061 22.71640 641 ft 3 kts 189°
2026-04-24 21:06 51.24050 22.71659 641 ft 2 kts 104°
2026-04-24 21:06 51.24057 22.71689 640 ft 4 kts 68°
2026-04-24 21:07 51.24076 22.71774 638 ft 14 kts 72°
2026-04-24 21:07 51.24104 22.71963 641 ft 18 kts 76°
2026-04-24 21:07 51.24142 22.72199 638 ft 27 kts 75°
2026-04-24 21:07 51.24185 22.72524 642 ft 31 kts 78°
2026-04-24 21:08 51.24242 22.72903 638 ft 37 kts 75°
2026-04-24 21:08 51.24283 22.73043 635 ft 2 kts 68°
2026-04-24 21:08 51.24283 22.73073 632 ft 3 kts 97°
2026-04-24 21:08 51.24267 22.73088 635 ft 3 kts 177°
2026-04-24 21:09 51.24256 22.73068 633 ft 3 kts 247°
2026-04-24 21:09 51.24257 22.73038 637 ft 3 kts 270°
2026-04-24 21:09 51.24254 22.73007 633 ft 3 kts 257°
2026-04-24 21:09 51.24247 22.72963 634 ft 10 kts 256°
2026-04-24 21:10 51.24176 22.72471 642 ft 82 kts 257°
2026-04-24 21:10 51.23998 22.71226 654 ft 144 kts 257°
2026-04-24 21:10 51.23757 22.69552 1154 ft 158 kts 256°
2026-04-24 21:10 51.23505 22.67845 1982 ft 159 kts 258°
2026-04-24 21:11 51.23247 22.66137 2705 ft 160 kts 258°
2026-04-24 21:11 51.22993 22.64361 3272 ft 168 kts 259°
2026-04-24 21:11 51.22732 22.62509 3876 ft 173 kts 260°
2026-04-24 21:11 51.22468 22.60639 4513 ft 176 kts 260°
2026-04-24 21:12 51.22195 22.58717 5167 ft 179 kts 261°
2026-04-24 21:12 51.22009 22.57406 5628 ft 180 kts 261°
2026-04-24 21:12 51.21870 22.54781 6504 ft 183 kts 275°
2026-04-24 21:12 51.22101 22.52665 6710 ft 204 kts 285°
2026-04-24 21:13 51.22484 22.50364 6875 ft 225 kts 287°
2026-04-24 21:13 51.22907 22.47859 7131 ft 242 kts 286°
2026-04-24 21:13 51.23209 22.46051 7244 ft 257 kts 286°
2026-04-24 21:13 51.23667 22.43259 7734 ft 269 kts 285°
2026-04-24 21:14 51.24142 22.40345 8556 ft 272 kts 285°
2026-04-24 21:14 51.24640 22.37414 9399 ft 276 kts 289°
2026-04-24 21:14 51.25616 22.34762 10156 ft 282 kts 312°
2026-04-24 21:14 51.27096 22.32530 10464 ft 306 kts 319°
2026-04-24 21:15 51.28792 22.30263 10660 ft 330 kts 320°
2026-04-24 21:15 51.30637 22.27862 10926 ft 350 kts 320°
2026-04-24 21:15 51.32546 22.25376 11532 ft 357 kts 320°
2026-04-24 21:15 51.34473 22.22849 12325 ft 360 kts 319°
2026-04-24 21:16 51.36407 22.20289 13118 ft 363 kts 319°
2026-04-24 21:16 51.38363 22.17682 13868 ft 367 kts 318°
2026-04-24 21:16 51.40330 22.15048 14612 ft 370 kts 319°
2026-04-24 21:16 51.42304 22.12395 15396 ft 371 kts 319°
2026-04-24 21:17 51.44271 22.09747 15813 ft 370 kts 319°
2026-04-24 21:17 51.46214 22.07125 15923 ft 367 kts 319°
2026-04-24 21:17 51.48167 22.04487 15711 ft 370 kts 319°
2026-04-24 21:17 51.50149 22.01807 15243 ft 366 kts 318°
2026-04-24 21:18 51.52064 21.99214 14728 ft 362 kts 318°
2026-04-24 21:18 51.53980 21.96616 14168 ft 359 kts 318°
2026-04-24 21:18 51.55877 21.94041 13577 ft 357 kts 318°
2026-04-24 21:18 51.57767 21.91471 12946 ft 354 kts 318°
2026-04-24 21:19 51.59640 21.88922 12357 ft 352 kts 318°
2026-04-24 21:19 51.61503 21.86385 11785 ft 349 kts 319°
2026-04-24 21:19 51.63347 21.83870 11224 ft 346 kts 319°
2026-04-24 21:19 51.65176 21.81374 10826 ft 340 kts 319°
2026-04-24 21:20 51.68637 21.76644 10523 ft 314 kts 319°
2026-04-24 21:20 51.70274 21.74403 10390 ft 303 kts 319°
2026-04-24 21:20 51.71853 21.72240 10260 ft 292 kts 319°
2026-04-24 21:21 51.73377 21.70149 10133 ft 283 kts 319°
2026-04-24 21:21 51.74661 21.67835 10004 ft 273 kts 298°
2026-04-24 21:21 51.75417 21.65072 9837 ft 267 kts 291°
2026-04-24 21:21 51.76088 21.62270 9521 ft 267 kts 291°
2026-04-24 21:22 51.76738 21.59512 9237 ft 266 kts 291°
2026-04-24 21:22 51.77397 21.56727 8925 ft 265 kts 291°
2026-04-24 21:22 51.78058 21.53945 8631 ft 264 kts 291°
2026-04-24 21:22 51.78718 21.51181 8340 ft 263 kts 291°
2026-04-24 21:23 51.79376 21.48426 8050 ft 262 kts 292°
2026-04-24 21:23 51.80035 21.45676 7754 ft 262 kts 292°
2026-04-24 21:23 51.80690 21.42940 7466 ft 261 kts 292°
2026-04-24 21:23 51.81344 21.40206 7175 ft 260 kts 292°
2026-04-24 21:24 51.81995 21.37485 6909 ft 258 kts 292°
2026-04-24 21:24 51.82637 21.34801 6675 ft 255 kts 292°
2026-04-24 21:24 51.83272 21.32141 6449 ft 251 kts 292°
2026-04-24 21:24 51.83886 21.29561 6348 ft 242 kts 293°
2026-04-24 21:25 51.84481 21.27064 6230 ft 233 kts 293°
2026-04-24 21:25 51.85194 21.24823 6111 ft 224 kts 314°
2026-04-24 21:25 51.86431 21.23373 5934 ft 218 kts 328°
2026-04-24 21:25 51.87727 21.22116 5685 ft 217 kts 329°
2026-04-24 21:26 51.89033 21.20915 5457 ft 215 kts 330°
2026-04-24 21:26 51.90329 21.19758 5320 ft 209 kts 330°
2026-04-24 21:26 51.91581 21.18653 5198 ft 202 kts 330°
2026-04-24 21:26 51.92825 21.17558 4968 ft 204 kts 330°
2026-04-24 21:27 51.94071 21.16463 4743 ft 203 kts 330°
2026-04-24 21:27 51.95313 21.15372 4505 ft 202 kts 330°
2026-04-24 21:27 51.96548 21.14288 4275 ft 201 kts 330°
2026-04-24 21:27 51.97776 21.13209 4046 ft 200 kts 330°
2026-04-24 21:28 51.98991 21.12141 3851 ft 196 kts 330°
2026-04-24 21:28 52.00147 21.11127 3781 ft 182 kts 330°
2026-04-24 21:28 52.01249 21.10160 3556 ft 178 kts 330°
2026-04-24 21:28 52.02320 21.09219 3334 ft 171 kts 329°
2026-04-24 21:29 52.03334 21.08329 3112 ft 161 kts 329°
2026-04-24 21:29 52.04288 21.07491 2894 ft 152 kts 329°
2026-04-24 21:29 52.05201 21.06690 2696 ft 144 kts 329°
2026-04-24 21:29 52.06060 21.05936 2507 ft 137 kts 328°
2026-04-24 21:30 52.06889 21.05208 2337 ft 137 kts 328°
2026-04-24 21:30 52.07718 21.04478 2147 ft 138 kts 328°
2026-04-24 21:30 52.08571 21.03731 1951 ft 137 kts 328°
2026-04-24 21:30 52.09407 21.02997 1770 ft 136 kts 328°
2026-04-24 21:31 52.10225 21.02277 1565 ft 136 kts 328°
2026-04-24 21:31 52.11062 21.01539 1402 ft 137 kts 328°
2026-04-24 21:31 52.11915 21.00784 1176 ft 141 kts 328°
2026-04-24 21:31 52.12785 21.00035 966 ft 141 kts 328°
2026-04-24 21:32 52.13647 20.99284 804 ft 141 kts 328°
2026-04-24 21:32 52.14510 20.98504 573 ft 142 kts 328°
2026-04-24 21:32 52.15382 20.97771 402 ft 141 kts 326°
2026-04-24 21:32 52.16273 20.96958 883 ft 147 kts 327°
2026-04-24 21:33 52.17204 20.96100 1471 ft 157 kts 328°
2026-04-24 21:33 52.17836 20.95506 1967 ft 165 kts 328°
2026-04-24 21:33 52.19415 20.94149 2409 ft 213 kts 331°
2026-04-24 21:33 52.20784 20.92981 2913 ft 229 kts 331°
2026-04-24 21:34 52.22149 20.91435 2974 ft 247 kts 308°
2026-04-24 21:34 52.22846 20.88868 3003 ft 252 kts 284°
2026-04-24 21:34 52.23215 20.86117 3001 ft 250 kts 283°
2026-04-24 21:34 52.23570 20.83353 3005 ft 248 kts 283°
2026-04-24 21:35 52.23924 20.80611 3007 ft 247 kts 283°
2026-04-24 21:35 52.24284 20.77876 3008 ft 246 kts 283°
2026-04-24 21:35 52.24648 20.75144 3012 ft 247 kts 283°
2026-04-24 21:35 52.25018 20.72399 3013 ft 248 kts 283°
2026-04-24 21:36 52.25388 20.69649 2999 ft 249 kts 283°
2026-04-24 21:36 52.25761 20.66889 2995 ft 249 kts 284°
2026-04-24 21:36 52.26051 20.64099 2998 ft 252 kts 270°
2026-04-24 21:36 52.25476 20.61420 3000 ft 257 kts 234°
2026-04-24 21:37 52.24012 20.59738 3004 ft 265 kts 199°
2026-04-24 21:37 52.22175 20.59696 3016 ft 271 kts 165°
2026-04-24 21:37 52.20453 20.60956 3014 ft 273 kts 153°
2026-04-24 21:37 52.18784 20.62453 3008 ft 274 kts 152°
2026-04-24 21:38 52.17116 20.63980 3001 ft 275 kts 152°
2026-04-24 21:38 52.15465 20.65493 2994 ft 276 kts 152°
2026-04-24 21:38 52.13773 20.67042 2992 ft 275 kts 152°
2026-04-24 21:38 52.12128 20.68547 2997 ft 275 kts 152°
2026-04-24 21:39 52.10465 20.70069 2996 ft 274 kts 152°
2026-04-24 21:39 52.08803 20.71590 2995 ft 274 kts 152°
2026-04-24 21:39 52.07144 20.73111 2992 ft 273 kts 152°
2026-04-24 21:39 52.05487 20.74628 3006 ft 273 kts 152°
2026-04-24 21:40 52.03832 20.76144 2998 ft 273 kts 152°
2026-04-24 21:40 52.02173 20.77662 2994 ft 273 kts 152°
2026-04-24 21:40 52.00518 20.79180 2993 ft 273 kts 152°
2026-04-24 21:40 51.98867 20.80696 3000 ft 272 kts 152°
2026-04-24 21:41 51.97215 20.82212 2996 ft 272 kts 152°
2026-04-24 21:41 51.95573 20.83719 3004 ft 270 kts 152°
2026-04-24 21:41 51.93984 20.85218 2985 ft 257 kts 145°
2026-04-24 21:41 51.92950 20.87424 2993 ft 242 kts 105°
2026-04-24 21:42 51.92972 20.89967 2989 ft 223 kts 66°
2026-04-24 21:42 51.93607 20.92215 3009 ft 220 kts 64°
2026-04-24 21:42 51.94078 20.94574 3008 ft 221 kts 77°
2026-04-24 21:42 51.94183 20.97051 2999 ft 220 kts 90°
2026-04-24 21:43 51.94036 20.99516 2999 ft 218 kts 97°
2026-04-24 21:43 51.93762 21.01931 3007 ft 217 kts 101°
2026-04-24 21:43 51.93424 21.04315 2992 ft 216 kts 102°
2026-04-24 21:43 51.93089 21.06697 2997 ft 219 kts 103°
2026-04-24 21:44 51.92716 21.09110 3010 ft 222 kts 103°
2026-04-24 21:44 51.92328 21.11544 3001 ft 224 kts 103°
2026-04-24 21:44 51.92207 21.13996 2984 ft 221 kts 71°
2026-04-24 21:44 51.93047 21.15937 3001 ft 210 kts 28°
2026-04-24 21:45 51.94410 21.16400 2994 ft 200 kts 344°
2026-04-24 21:45 51.95590 21.15355 3015 ft 193 kts 322°
2026-04-24 21:45 51.96728 21.14174 3003 ft 195 kts 328°
2026-04-24 21:45 51.97910 21.13098 2998 ft 195 kts 329°
2026-04-24 21:46 51.99104 21.12042 3002 ft 195 kts 329°
2026-04-24 21:46 52.00298 21.10992 3005 ft 195 kts 329°
2026-04-24 21:46 52.01497 21.09940 3006 ft 196 kts 329°
2026-04-24 21:46 52.02697 21.08887 3003 ft 197 kts 329°
2026-04-24 21:47 52.03905 21.07826 2946 ft 199 kts 329°
2026-04-24 21:47 52.04719 21.07111 2799 ft 202 kts 329°
2026-04-24 21:47 52.06319 21.05707 2465 ft 190 kts 329°
2026-04-24 21:47 52.07444 21.04721 2203 ft 178 kts 329°
2026-04-24 21:48 52.08497 21.03798 1973 ft 167 kts 328°
2026-04-24 21:48 52.09484 21.02931 1761 ft 155 kts 328°
2026-04-24 21:48 52.10380 21.02146 1547 ft 139 kts 328°
2026-04-24 21:48 52.11210 21.01415 1357 ft 134 kts 328°
2026-04-24 21:49 52.12043 21.00684 1173 ft 138 kts 328°
2026-04-24 21:49 52.12895 20.99937 984 ft 140 kts 328°
2026-04-24 21:49 52.13753 20.99184 787 ft 140 kts 328°
2026-04-24 21:49 52.14593 20.98447 619 ft 138 kts 327°
2026-04-24 21:50 52.15443 20.97699 398 ft 139 kts 327°
2026-04-24 21:50 52.16228 20.97003 336 ft 105 kts 333°
2026-04-24 21:50 52.16687 20.96604 335 ft 44 kts 336°
2026-04-24 21:50 52.16889 20.96511 337 ft 28 kts 356°
2026-04-24 21:51 52.17056 20.96522 337 ft 11 kts 20°
2026-04-24 21:51 52.17092 20.96581 337 ft 6 kts 58°
2026-04-24 21:51 52.17112 20.96635 337 ft 6 kts 60°
2026-04-24 21:51 52.17131 20.96689 336 ft 5 kts 62°
2026-04-24 21:52 52.17148 20.96743 337 ft 5 kts 62°
2026-04-24 21:52 52.17162 20.96797 336 ft 5 kts 80°
2026-04-24 21:52 52.17146 20.96845 335 ft 5 kts 140°
2026-04-24 21:52 52.17118 20.96877 338 ft 5 kts 149°
2026-04-24 21:53 52.17087 20.96904 336 ft 5 kts 152°
2026-04-24 21:53 52.17057 20.96930 335 ft 5 kts 153°
2026-04-24 21:53 52.17027 20.96956 336 ft 5 kts 153°
2026-04-24 21:53 52.16998 20.96980 335 ft 5 kts 153°
2026-04-24 21:54 52.16969 20.97005 336 ft 5 kts 151°
2026-04-24 21:54 52.16941 20.97030 338 ft 5 kts 152°
2026-04-24 21:54 52.16928 20.97060 338 ft 0 kts 106°
2026-04-24 21:54 52.16932 20.97090 337 ft 5 kts 64°
2026-04-24 21:55 52.16945 20.97141 334 ft 5 kts 68°
2026-04-24 21:55 52.16957 20.97190 337 ft 0 kts 68°